Location: Griffin Ranch
(33.6186°N, 110.6622°W)
Time: 23:51:08
(UTC-07:00)

Daily predictions for brighter satellites

Satellite Brightness Start Highest point End
(mag) Time Altitude Azimuth Time Altitude Azimuth Time Altitude Azimuth
YAOGAN 1 2.5 17:59:18 10° SSE 18:03:37 81° ENE 18:07:57 10° N
CORIOLIS 4.1 17:59:11 10° SSE 18:04:31 80° ENE 18:09:53 10° N
Cosmos 332 Rocket 4.1 18:00:27 10° S 18:05:04 48° ESE 18:09:42 10° NNE
COSMO-SKYMED 1 2.9 18:01:05 10° NNE 18:05:15 45° E 18:09:23 10° S
Cosmos 1937 Rocket 3.5 18:02:05 10° N 18:07:14 62° ENE 18:12:23 10° SSE
Cosmos 2219 Rocket 2.5 18:03:27 10° S 18:08:50 48° ESE 18:14:15 10° NNE
Cosmos 1908 3.2 18:07:07 10° N 18:10:58 61° E 18:14:49 10° SSE
Cosmos 2084 4.0 18:08:44 10° S 18:12:21 34° ESE 18:15:52 10° NE
Cosmos 1484 Rocket 3.0 18:09:21 10° SSE 18:13:04 49° ENE 18:16:53 10° N
Cosmos 2278 Rocket 3.6 18:10:48 10° NNE 18:14:23 17° ENE 18:17:56 10° E
CZ-4 R/B 2.7 18:11:53 10° S 18:15:34 43° W 18:19:17 10° NNW
Cosmos 389 Rocket 2.5 18:14:28 10° N 18:18:05 87° W 18:21:36 10° S
Intelsat 5-1 Rocket 3.7 18:16:29 10° SSW 18:18:13 15° SSE 18:20:34 10° SE
CENTAUR R/B 3.0 18:16:07 10° SW 18:21:57 59° NW 18:28:32 10° NNE
Cosmos 1674 3.3 18:19:44 10° SSW 18:23:29 60° W 18:27:15 10° N
Cosmos 1844 4.3 18:19:19 10° N 18:24:36 36° ENE 18:29:52 10° SE
COSMOS 2428 3.3 18:22:02 10° SSW 18:27:40 59° WNW 18:33:19 10° NNE
Abrixas 4.4 18:27:34 10° S 18:29:31 16° SE 18:30:36 14° ESE
Cosmos 2346 Rocket 4.5 18:23:39 10° S 18:29:55 81° E 18:36:11 10° N
ALOS 3.8 18:28:11 10° E 18:30:45 15° ENE 18:33:19 10° NNE
Hubble Space Telescope 2.0 18:29:17 10° WSW 18:33:07 37° S 18:36:57 10° ESE
Cosmos 44 3.8 18:30:14 10° S 18:35:17 45° ESE 18:39:29 14° NE
Cosmos 1743 Rocket 4.0 18:31:36 10° SSW 18:36:01 67° W 18:40:28 10° N
Cosmos 371 Rocket 3.2 18:31:37 10° S 18:36:24 76° ESE 18:41:13 10° NNE
Cosmos 2237 Rocket 2.4 18:31:10 10° S 18:36:33 49° ESE 18:41:57 10° NNE
Abrixas rocket 2.4 18:33:19 10° NW 18:36:35 51° NE 18:38:57 17° ESE
CZ-2C R/B 4.5 18:34:00 10° SSW 18:38:31 32° W 18:42:58 10° NW
SL-16 R/B 3.4 18:35:55 10° SE 18:39:55 20° E 18:41:30 18° ENE
Cosmos 1300 3.1 18:37:23 10° N 18:41:00 38° E 18:44:34 10° SSE
Meteor 2-2 Rocket 4.2 18:37:36 10° N 18:43:15 88° E 18:48:54 10° S
Cosmos 1328 3.7 18:42:24 10° S 18:46:21 89° WNW 18:50:19 10° N
Cosmos 2058 3.1 18:44:04 10° SSE 18:48:01 47° E 18:51:51 11° NNE
Cosmos 1328 Rocket 4.0 18:43:46 10° NNW 18:48:10 64° W 18:52:33 10° S
Meteor 1-11 4.3 18:44:34 10° S 18:50:04 58° E 18:55:40 10° NNE
Cosmos 1515 Rocket 3.7 18:48:19 10° N 18:52:47 80° W 18:57:13 10° S
NOAA 12 4.0 18:48:48 10° SSE 18:53:56 61° ENE 18:59:06 10° N
Cosmos 1726 2.1 18:50:43 10° N 18:54:27 62° E 18:58:10 10° SSE
Cosmos 44 Rocket 3.6 18:49:24 10° SW 18:54:31 71° WNW 18:59:13 12° NNE
Cosmos 1805 Rocket 4.2 18:51:50 10° SSE 18:55:51 35° E 18:57:26 26° NE
SJ-6B 3.0 18:52:49 10° SSE 18:56:40 48° ENE 19:00:36 10° N
Cosmos 1634 Rocket 4.1 18:55:06 10° N 19:01:18 80° W 19:07:27 10° S
Cosmos 783 Rocket 4.5 18:57:35 10° S 19:02:49 67° ESE 19:07:01 16° NNE
Cosmos 2151 3.1 18:59:06 10° S 19:03:19 74° W 19:07:31 10° N
BREEZE-M DEB (TANK) 3.2 19:02:09 10° WSW 19:04:28 31° NW 19:04:56 28° N
Meteor 1-28 Rocket 4.4 19:02:17 10° N 19:05:47 41° WNW 19:09:17 10° SW
Cosmos 1151 Rocket 3.1 19:06:23 10° N 19:10:39 74° W 19:14:54 10° S
Cosmos 540 Rocket 3.6 19:05:43 10° SSW 19:10:52 76° WNW 19:15:48 11° NNE
OTV 4 1.7 19:09:20 10° WNW 19:11:32 31° NNW 19:11:32 31° NNW
Milstar 3 3.4 19:07:12 10° W 19:13:34 51° S 19:19:00 19° ESE
OAO 3 Rocket 3.4 19:11:49 10° W 19:16:40 66° SSW 19:18:31 36° SE
GPS 2-04 Rocket1 4.4 19:13:33 10° W 19:17:23 31° SSW 19:19:57 17° SSE
Cosmos 1844 Rocket 3.3 19:11:52 10° NNW 19:17:25 57° WSW 19:22:54 10° S
Atlas Centaur 2 3.0 19:15:23 10° W 19:19:22 29° SSW 19:21:13 20° SSE
Resurs 01 Rocket 3.7 19:23:01 15° N 19:23:01 15° N 19:23:46 10° N
Cosmos 1125 Rocket 3.3 19:14:20 10° NNW 19:19:32 81° ENE 19:24:43 10° SSE
Cosmos 1703 3.1 19:15:45 10° S 19:19:33 66° E 19:19:33 66° E
USA 215 3.2 19:13:37 10° SE 19:20:11 90° N 19:26:47 10° NW
OAO 1 Rocket 4.4 19:16:23 10° W 19:21:42 77° N 19:23:07 49° ENE
SEDSat Delta rocket 3.8 19:18:01 10° W 19:23:11 51° SSW 19:24:50 35° SE
Cosmos 1980 4.3 19:17:45 10° SW 19:23:18 56° WNW 19:28:29 12° N
Sich 1 4.0 19:19:52 10° SSE 19:22:37 33° SE 19:22:37 33° SE
Cosmos 304 Rocket 3.6 19:22:15 10° S 19:27:02 71° ESE 19:27:53 57° NE
Spot 2 Rocket 3.5 19:22:09 10° SSE 19:27:04 56° ENE 19:32:00 10° N
Cosmos 1340 Rocket 3.0 19:24:23 10° SSW 19:28:19 67° W 19:29:45 37° N
CZ-3A R/B 3.5 19:25:55 10° NNW 19:29:46 35° NNE 19:29:46 35° NNE
Cosmos 1538 Rocket 4.2 19:25:43 10° S 19:30:24 50° ESE 19:30:24 50° ESE
Cosmos 2333 Rocket 3.4 19:26:18 10° SW 19:31:33 39° WNW 19:36:50 10° N
Aureole 2 Rocket 3.5 19:37:37 10° SW 19:40:42 45° W 19:40:42 45° W
FENGYUN 3A 3.5 19:36:51 10° SSE 19:42:12 83° ENE 19:47:35 10° N
Cosmos 2219 Rocket 4.5 19:48:56 10° WSW 19:53:01 20° WNW 19:57:07 10° NNW
USA 229 DEB 4.2 19:51:20 10° S 19:56:19 42° SSE 19:56:19 42° SSE
USA 229 4.2 19:51:27 10° S 19:56:21 41° SSE 19:56:21 41° SSE
Centaur AC-119 4.2 19:55:07 10° SW 19:56:22 24° SSW 19:56:22 24° SSW
Cosmos 2278 Rocket 2.6 19:53:16 10° NNW 19:58:52 60° WSW 20:04:25 10° S
ALOS 3.2 20:03:17 10° S 20:07:45 46° W 20:12:14 10° NNW
Hubble Space Telescope 3.4 20:10:54 10° WSW 20:12:32 17° SW 20:12:32 17° SW
Cosmos 2237 Rocket 4.4 20:16:49 10° WSW 20:20:50 20° WNW 20:24:04 13° NNW
SL-16 R/B 3.1 20:18:14 10° SW 20:23:27 44° WNW 20:23:27 44° WNW
Cosmos 1092 Rocket 4.5 20:21:31 10° SSW 20:27:12 58° WSW 20:27:12 58° WSW
